Weather History for VILK - January, 2014

Change the Weather History Date:

Sunday, January 12, 2014

  Actual Average Record
Temperature  
Mean Temperature 56 °F -  
Max Temperature 66 °F 69 °F 77 °F (2006)
Min Temperature 47 °F 50 °F 36 °F (2013)
Degree Days  
Heating Degree Days 8    
Growing Degree Days 6 (Base 50)    
Moisture  
Dew Point 53 °F    
Average Humidity 80    
Maximum Humidity 100    
Minimum Humidity 54    
Precipitation  
Precipitation 0.00 in - - ()
Sea Level Pressure  
Sea Level Pressure 30.12 in    
Wind  
Wind Speed 3 mph ()    
Max Wind Speed 6 mph    
Max Gust Speed -    
Visibility 1.3 miles    
Events Fog    
Averages and records for this station are not official NWS values.
T = Trace of Precipitation, MM = Missing Value Source: Averaged Metar Reports

Daily Weather History Graph

Daily Weather History Graph

Search for Another Location

Airport or City:

Trip Planner

Search our weather history database for the weather conditions in past years. The results will help you decide how hot, cold, wet, or windy it might be!

Date:

Astronomy

Jan. 12, 2014 Rise Set
Actual Time 6:56 AM IST 5:32 PM IST
Civil Twilight 6:31 AM IST 5:57 PM IST
Nautical Twilight 6:03 AM IST 6:26 PM IST
Astronomical Twilight 5:34 AM IST 6:54 PM IST
Moon 2:36 PM IST (1/12) 3:33 AM IST (1/12)
Length of Visible Light 11h 26m
Length of Day
10h 36m
Waxing Gibbous, 87% of the Moon is Illuminated
Jan 12
Waxing Gibbous
Jan 16
Full
Jan 24
Last Quarter
Jan 31
New
Feb 7
First Quarter

Hourly Weather History & Observations

Time (IST) Temp. Dew Point Humidity Pressure Visibility Wind Dir Wind Speed Gust Speed Precip Events Conditions
12:00 AM 57.2 °F 55.4 °F 94% 30.09 in 1.2 mi Variable 2.3 mph - N/A   Mostly Cloudy
2:30 AM 54 °F 52 °F 92% 30.13 in 0 mi NW 3.5 mph - - Fog Partial Fog
3:00 AM 53.6 °F 51.8 °F 94% 30.09 in 0.2 mi Variable 2.3 mph - N/A Fog Fog
4:00 AM 53.6 °F 51.8 °F 94% 30.09 in 0.2 mi NW 3.5 mph - N/A Fog Fog
5:30 AM 54 °F 53 °F 95% 30.12 in 1 mi NW 4.6 mph - -   Mist
6:00 AM 53.6 °F 53.6 °F 100% 30.09 in 1.6 mi NNW 5.8 mph - N/A   Mist
7:00 AM 53.6 °F 53.6 °F 100% 30.12 in 1.2 mi WSW 3.5 mph - N/A   Scattered Clouds
8:00 AM 51.8 °F 51.8 °F 100% 30.15 in 0.9 mi WSW 3.5 mph - N/A   Mist
8:30 AM 54 °F 52 °F 91% 30.19 in 1 mi WSW 3.5 mph - -   Mist
8:30 AM 53.6 °F 51.8 °F 94% 30.15 in 0.9 mi WSW 3.5 mph - N/A   Mist
9:00 AM 55.4 °F 51.8 °F 88% 30.33 in 1.2 mi West 4.6 mph - N/A   Mist
9:30 AM 55.4 °F 51.8 °F 88% 30.18 in 1.2 mi West 5.8 mph - N/A   Scattered Clouds
10:00 AM 59.0 °F 51.8 °F 77% 30.18 in 1.2 mi West 4.6 mph - N/A   Scattered Clouds
10:30 AM 60.8 °F 51.8 °F 72% 30.18 in 1.6 mi NNW 3.5 mph - N/A   Haze
11:30 AM 62 °F 53 °F 66% 30.18 in 1 mi NW 3.5 mph - -   Haze
11:30 AM 62.6 °F 53.6 °F 72% 30.15 in 1.9 mi NW 3.5 mph - N/A   Haze
12:00 PM 62.6 °F 53.6 °F 72% 30.15 in 1.9 mi WNW 3.5 mph - N/A   Haze
12:30 PM 62.6 °F 53.6 °F 72% 30.12 in 1.9 mi NW 4.6 mph - N/A   Haze
1:00 PM 62.6 °F 53.6 °F 72% 30.12 in 1.9 mi WNW 4.6 mph - N/A   Haze
1:30 PM 66.2 °F 53.6 °F 64% 30.09 in 2.2 mi West 4.6 mph - N/A   Haze
2:00 PM 66.2 °F 53.6 °F 64% 30.09 in 2.2 mi West 4.6 mph - N/A   Haze
2:30 PM 66 °F 53 °F 54% 30.10 in 1 mi SW 4.6 mph - -   Haze
2:30 PM 66.2 °F 53.6 °F 64% 30.06 in 2.2 mi SW 4.6 mph - N/A   Haze
3:00 PM 66.2 °F 53.6 °F 64% 30.06 in 2.2 mi West 5.8 mph - N/A   Haze
3:30 PM 66.2 °F 53.6 °F 64% 30.06 in 2.2 mi WNW 5.8 mph - N/A   Haze
4:00 PM 66.2 °F 53.6 °F 64% 30.06 in 2.2 mi WSW 5.8 mph - N/A   Haze
5:00 PM 64.4 °F 53.6 °F 68% 30.06 in 1.9 mi WSW 5.8 mph - N/A   Haze
5:30 PM 63 °F 53 °F 60% 30.09 in 1 mi WSW 4.6 mph - -   Haze
5:30 PM 62.6 °F 53.6 °F 72% 30.06 in 1.9 mi WSW 4.6 mph - N/A   Haze
6:00 PM 60.8 °F 51.8 °F 72% 30.06 in 1.6 mi WSW 3.5 mph - N/A   Haze
6:30 PM 59.0 °F 55.4 °F 88% 30.06 in 1.2 mi Variable 2.3 mph - N/A   Scattered Clouds
7:00 PM 59.0 °F 55.4 °F 88% 30.09 in 1.2 mi Variable 2.3 mph - N/A   Scattered Clouds
8:00 PM 57.2 °F 53.6 °F 88% 30.09 in 0.7 mi Variable 2.3 mph - N/A   Scattered Clouds
8:30 PM 56 °F 53 °F 85% 30.14 in 1 mi 2.3 mph - -   Mist
8:30 PM 55.4 °F 51.8 °F 88% 30.12 in 0.7 mi Variable 2.3 mph - N/A   Scattered Clouds
9:00 PM 55.4 °F 51.8 °F 88% 30.12 in 0.7 mi Variable 2.3 mph - N/A   Mist
10:00 PM 55.4 °F 53.6 °F 94% 30.12 in 0.7 mi Variable 2.3 mph - N/A   Mist
11:30 PM 54 °F 52 °F 89% 30.15 in 0 mi 2.3 mph - - Fog Partial Fog